Home   Weather   Heinsberg   Past weeks

Flag for Germany Past Weather in Heinsberg, North Rhine-Westphalia, Germany — Yesterday and Last 2 Weeks

54 °F

Passing clouds.

Feels Like: 53 °F
Forecast: 50 / 58 °F
Wind: 3 mph from Southwest

Location: Geilenkirchen Airport

Current Time: Oct 27, 2016 at 8:53:27 PM

Latest Report: Oct 27, 2016 at 7:50 PM

Visibility: N/A

Pressure: 30.51 "Hg

Humidity: 88%

Dew Point: 50 °F

Location of HeinsbergLocation

Past Weather in Heinsberg — Graph


Heinsberg Temperature Yesterday

Maximum temperature yesterday: 55 °F (at 11:50 AM)
Minimum temperature yesterday: 41 °F (at 10:50 PM)
Average temperature yesterday: 48 °F

High & Low Weather Summary for the Past Weeks

High61 °F (Oct 17, 4:50 PM)100% (Oct 20, 12:50 AM)30.54 "Hg (Oct 20, 12:50 AM)
Low37 °F (Oct 13, 4:50 AM)55% (Oct 13, 3:50 PM)29.71 "Hg (Oct 14, 3:50 PM)
Average49 °F88%30.08 "Hg
* Reported Oct 12 6:50 PM — Oct 27 6:50 PM, Heinsberg, Weather by CustomWeather, © 2016

Note: Actual official high and low records may vary slightly from our data, if they occured in-between our weather recording intervals... More about our weather records


Heinsberg Weather History for the Previous 24 Hours

Scroll right to see more
Time TempWeatherWind HumidityBarometerVisibility
6:50 PM
Thu, Oct 27
54 °FPartly cloudy.5 mph88%30.51 "HgN/A
5:50 PM55 °FPartly sunny.7 mph82%30.54 "HgN/A
4:50 PM57 °FBroken clouds.8 mph77%30.51 "HgN/A
3:50 PM55 °FPartly sunny.8 mph82%30.51 "HgN/A
2:50 PM55 °FPartly sunny.9 mph82%30.51 "Hg4 mi
1:50 PM54 °FFog.13 mph88%30.54 "Hg3 mi
12:50 PM54 °FFog.12 mph88%30.54 "Hg3 mi
11:50 AM54 °FFog.12 mph88%30.51 "Hg3 mi
10:50 AM52 °FFog.9 mph88%30.51 "Hg3 mi
9:50 AM52 °FFog.9 mph88%30.51 "Hg3 mi
8:50 AM50 °FFog.6 mph94%30.51 "Hg3 mi
7:50 AM50 °FFog.7 mph88%30.48 "Hg3 mi
6:50 AM48 °FPartly cloudy.7 mph94%30.48 "Hg4 mi
5:50 AM50 °FPassing clouds.7 mph88%30.45 "Hg4 mi
4:50 AM50 °FPassing clouds.7 mph88%30.45 "Hg4 mi
3:50 AM50 °FFog.6 mph88%30.45 "Hg4 mi
2:50 AM50 °FFog.7 mph88%30.48 "Hg4 mi
1:50 AM50 °FFog.8 mph82%30.45 "Hg3 mi
12:50 AM48 °FFog.5 mph87%30.45 "Hg3 mi
11:50 PM
Wed, Oct 26
43 °FFog.3 mph93%30.45 "Hg2 mi
10:50 PM41 °FFog.2 mph100%30.45 "Hg2 mi
9:50 PM45 °FFog.2 mph93%30.45 "Hg2 mi
8:50 PM45 °FFog.3 mph93%30.42 "Hg2 mi
Weather by CustomWeather, © 2016

See weather overviewHow to use our weather pages